Change the Weather History Date:

Tuesday, November 8, 2011

  Actual Average Record
Temperature  
Mean Temperature 37 °F 35 °F  
Max Temperature 40 °F 39 °F 49 °F (2002)
Min Temperature 33 °F 30 °F 10 °F (1973)
Degree Days  
Heating Degree Days 28 30  
Month to date heating degree days 245 233  
Since 1 July heating degree days 2053 1918  
Moisture  
Dew Point 31 °F    
Average Humidity 82    
Maximum Humidity 100    
Minimum Humidity 64    
Precipitation  
Precipitation T in 0.20 in 1.38 in (1948)
Month to date precipitation 2.16 1.66  
Year to date precipitation 53.69 52.10  
Snow  
Snow 0.00 in 0.30 in 8.00 in (1966)
Month to date snowfall 6.0 2.1  
Since 1 July snowfall 6.0 2.9  
Since 1 September snowfall 6.0 2.9  
Snow Depth 0.00 in    
Sea Level Pressure  
Sea Level Pressure 30.02 in    
Wind  
Wind Speed 9 mph (East)    
Max Wind Speed 17 mph    
Max Gust Speed 21 mph    
Visibility 10 miles    
Events Rain    
T = Trace of Precipitation, MM = Missing Value Source: NWS Daily Summary

Daily Weather History Graph

Daily Weather History Graph

Search for Another Location

Airport or City:

Trip Planner

Search our weather history database for the weather conditions in past years. The results will help you decide how hot, cold, wet, or windy it might be!

Date:

Astronomy

Nov. 08, 2011 Rise Set
Actual Time 7:30 AM AKST 3:53 PM AKST
Civil Twilight 6:45 AM AKST 4:37 PM AKST
Nautical Twilight 5:57 AM AKST 5:25 PM AKST
Astronomical Twilight 5:11 AM AKST 6:11 PM AKST
Moon 2:45 PM AKST (11/8) 5:23 AM AKST (11/8)
Length of Visible Light 9h 51m
Length of Day
8h 22m
Waxing Gibbous, 96% of the Moon is Illuminated
Nov 8
Waxing Gibbous
Nov 10
Full
Nov 18
Last Quarter
Nov 24
New
Dec 2
First Quarter

Hourly Weather History & Observations

Time (AKST) Temp. Windchill Dew Point Humidity Pressure Visibility Wind Dir Wind Speed Gust Speed Precip Events Conditions
12:53 AM 36.0 °F 28.5 °F 33.1 °F 89% 29.91 in 10.0 mi ENE 10.4 mph - N/A   Mostly Cloudy
1:53 AM 36.0 °F 30.3 °F 34.0 °F 93% 29.94 in 10.0 mi NE 6.9 mph - N/A   Overcast
3:53 AM 35.1 °F 27.9 °F 33.1 °F 92% 29.97 in 10.0 mi East 9.2 mph - N/A   Overcast
4:53 AM 35.1 °F 28.6 °F 32.0 °F 89% 29.98 in 10.0 mi ENE 8.1 mph - N/A   Overcast
5:53 AM 34.0 °F 26.6 °F 32.0 °F 92% 29.99 in 10.0 mi East 9.2 mph - N/A   Mostly Cloudy
6:53 AM 35.1 °F 27.9 °F 30.9 °F 85% 30.00 in 10.0 mi East 9.2 mph - N/A   Overcast
7:53 AM 34.0 °F 27.2 °F 30.9 °F 89% 30.01 in 10.0 mi East 8.1 mph - N/A   Mostly Cloudy
8:53 AM 36.0 °F 30.3 °F 32.0 °F 86% 30.01 in 10.0 mi East 6.9 mph - N/A   Mostly Cloudy
9:53 AM 37.0 °F 30.4 °F 33.1 °F 86% 30.02 in 10.0 mi East 9.2 mph - N/A   Overcast
10:53 AM 37.9 °F 30.9 °F 33.1 °F 83% 30.03 in 10.0 mi East 10.4 mph - N/A   Overcast
11:53 AM 39.0 °F 32.3 °F 34.0 °F 82% 30.05 in 10.0 mi East 10.4 mph - N/A   Overcast
12:53 PM 39.0 °F 33.4 °F 33.1 °F 79% 30.04 in 10.0 mi ESE 8.1 mph - N/A   Overcast
1:53 PM 39.9 °F 33.4 °F 32.0 °F 73% 30.04 in 10.0 mi East 10.4 mph - N/A   Overcast
2:53 PM 39.0 °F 31.4 °F 28.0 °F 65% 30.04 in 10.0 mi East 12.7 mph - 0.00 in Rain Light Rain
3:53 PM 37.9 °F 30.9 °F 28.9 °F 70% 30.03 in 10.0 mi East 10.4 mph - 0.00 in   Overcast
4:53 PM 39.0 °F 31.8 °F 28.0 °F 65% 30.04 in 10.0 mi East 11.5 mph - N/A   Overcast
5:53 PM 37.9 °F 30.5 °F 28.9 °F 70% 30.05 in 10.0 mi SE 11.5 mph - N/A   Overcast
6:53 PM 37.9 °F 29.6 °F 28.9 °F 70% 30.06 in 10.0 mi ESE 13.8 mph - N/A   Overcast
7:53 PM 37.9 °F 30.5 °F 28.9 °F 70% 30.05 in 10.0 mi SE 11.5 mph - N/A   Overcast
8:53 PM 37.9 °F 30.5 °F 28.0 °F 68% 30.05 in 10.0 mi SE 11.5 mph - N/A   Overcast
9:53 PM 36.0 °F - 30.9 °F 82% 30.05 in 10.0 mi Calm Calm - N/A   Overcast
10:53 PM 35.1 °F 32.2 °F 32.0 °F 89% 30.04 in 10.0 mi WNW 3.5 mph - N/A   Overcast
11:53 PM 33.1 °F - 30.9 °F 92% 30.03 in 10.0 mi Calm Calm - N/A   Overcast